Gillette, WY

9:49 PM MDT on April 24, 2017 (GMT -0600)
Lakeland Hills | | Change Station
Active Advisory: Winter Weather Advisory

Elev 4580 ft 44.30 °N, 105.48 °W | Updated 2 seconds ago

Overcast
Overcast
44.8 °F
Feels Like 41 °F
N
6.9
Wind Variable Wind from North
Gusts 13.0 mph

Today
High -- | Low -- °F
--% Chance of Precip.
Yesterday
High -- | Low -- °F
Precip. -- in
Pressure 29.54 in
Visibility -9999.0 miles
Clouds Scattered Clouds 800 ft
Mostly Cloudy 1200 ft
Overcast 4500 ft
Windchill 41 °F
Dew Point 42 °F
Humidity 89%
Rainfall 0.17 in
Snow Depth Not available.
6:03 AM 7:58 PM
Waning Crescent, 3% visible
SPECI KGCC 250340Z AUTO 05010KT SCT008 BKN012 OVC045 08/07 A2954 RMK AO2 T00780072 $
Pressure 29.54 in
Visibility -9999.0 miles
Clouds Scattered Clouds 800 ft
Mostly Cloudy 1200 ft
Overcast 4500 ft
Windchill 41 °F
Dew Point 42 °F
Humidity 89%
Rainfall 0.17 in
Snow Depth Not available.
6:03 AM 7:58 PM
Waning Crescent, 3% visible
SPECI KGCC 250340Z AUTO 05010KT SCT008 BKN012 OVC045 08/07 A2954 RMK AO2 T00780072 $

Get Your Daily Forecast Email!

Thanks for signing up!

Be on the lookout for a verification email in your inbox.

You'll start receiving severe weather alerts in your inbox..

×

10-Day Weather Forecast

Almanac

Astronomy

Apr. 24, 2017 Rise Set
Actual Time
Civil Twilight
Nautical Twilight
Astronomical Twilight
Moon
Length of Visible Light
Length of Day
Tomorrow will be .
, % of the Moon is Illuminated

Today's Extremes

State Highs State Lows

Community

WunderPhotos

WunderBlog® & News

Nearby

Air Quality

  Air Quality AQ Index Pollutant
Not available.

Snow Depth

Station Depth Elevation

Earthquake Activity

City Distance Mag. Time & Date
Minimum magnitude displayed is 2.5.

Coastal Water Temperatures

Place Temperature

Stations

Nearby Weather Stations

Station Location Temp. Windchill Dew Point Humidity Wind Precip. Elev Updated Type
                   

Watches & Warnings

Winter Weather Advisory
Issued: 3:55 PM MDT Apr. 24, 2017 – National Weather Service

... Winter Weather Advisory remains in effect from midnight
tonight to 3 PM MDT Tuesday...

* timing... rain will move into the area this evening, changing
over to snow after midnight. Snow will persist into Tuesday
morning, tapering off in the afternoon.

* Main impact... snowfall totals of 3 to 6 inches are expected,
with locally higher amounts possible, especially across far
northern Campbell and northern Crook counties.

* Other impacts... with many trees beginning to Leaf out, the
heavy wet snow could bring down some tree limbs.

Precautionary/preparedness actions...

A Winter Weather Advisory for snow means snow accumulation will
create hazardous conditions. Use caution when traveling.